Total_Precipitation_Accumulation
2.03 2.42 2.79 3.25 3.69 4.23 5.02 5.69 6.28 6.39 6.24 5.88 5.51 5.27 4.83 4.54 4.28 4.01 3.85 3.58 3.31 3.20 3.58 3.30 3.67 3.51 3.47 3.30 3.26 3.44 3.47 3.13 3.30 3.64 3.21 2.66 2.34 2.23 2.04 2.04 2.16 2.07 2.20
1.95 2.32 2.87 3.19 3.55 4.12 4.72 5.10 5.18 4.97 4.89 4.94 4.85 4.57 4.59 4.45 4.40 4.23 4.08 3.55 3.36 3.25 3.05 3.29 3.14 3.12 3.26 3.03 2.96 3.17 3.17 2.85 3.14 3.42 3.51 2.96 2.69 2.26 1.70 1.89 2.06 2.15 2.40
1.57 1.92 2.53 2.87 3.06 3.60 3.97 3.97 3.93 3.86 3.99 4.07 4.00 4.04 4.31 4.40 4.50 4.46 4.20 3.76 3.56 3.43 3.26 3.16 2.99 2.94 2.76 2.92 2.95 2.98 3.09 3.09 2.98 3.02 3.35 3.07 2.74 2.31 1.83 1.77 2.01 2.35 2.63
1.33 1.64 2.00 2.25 2.54 2.84 3.02 3.00 3.11 3.22 3.31 3.40 3.41 3.30 3.33 3.61 3.90 4.14 4.22 4.10 3.84 3.62 3.32 3.11 2.88 2.72 2.56 2.86 2.55 2.67 2.98 3.20 2.89 2.80 2.75 2.72 2.84 2.73 2.35 1.91 1.77 2.04 2.26
1.38 1.57 1.69 1.88 2.00 2.10 2.26 2.34 2.60 3.01 3.19 3.30 3.44 3.34 3.01 3.03 3.13 3.30 3.50 3.52 3.52 3.37 3.03 2.91 2.83 2.65 2.48 2.53 2.53 2.84 2.86 2.83 2.76 2.82 2.76 2.85 3.02 2.81 2.67 2.35 2.21 2.27 2.13
1.09 1.31 1.59 1.70 1.69 1.68 1.84 2.07 2.38 2.91 3.21 3.33 3.26 3.23 3.14 3.15 3.08 3.08 3.18 3.09 3.09 3.03 2.78 2.62 2.71 2.58 2.50 2.55 2.56 2.66 2.73 2.86 2.91 2.90 2.86 2.92 2.92 2.95 3.12 2.77 2.52 2.46 2.13
0.87 0.88 1.07 1.34 1.33 1.30 1.49 1.75 1.97 2.44 2.79 2.97 2.86 2.80 2.94 3.05 2.90 2.72 2.68 2.67 2.54 2.49 2.48 2.52 2.62 2.48 2.52 2.60 2.72 2.75 2.73 2.84 2.88 2.81 2.89 2.97 2.91 3.01 3.15 3.07 2.70 2.43 2.14
0.67 0.63 0.70 0.89 1.14 1.17 1.26 1.39 1.63 1.92 2.25 2.47 2.54 2.62 2.80 2.90 2.82 2.99 2.71 2.58 2.26 2.12 2.19 2.40 2.45 2.40 2.36 2.39 2.82 2.80 2.80 2.90 2.84 2.68 3.02 3.06 2.85 3.03 3.17 3.29 3.33 2.95 2.70
0.56 0.56 0.63 0.83 0.91 0.95 1.04 1.20 1.40 1.60 1.83 2.09 2.33 2.41 2.40 2.41 2.56 2.72 2.65 2.48 2.39 2.14 2.18 2.25 2.46 2.57 2.66 2.71 2.89 2.81 2.82 3.02 2.97 2.91 3.11 3.07 2.89 2.92 3.02 3.24 3.52 3.60 3.35
0.60 0.57 0.58 0.67 0.74 0.81 0.92 1.13 1.32 1.36 1.59 1.99 2.28 2.27 2.36 2.28 2.43 2.40 2.39 2.42 2.32 2.24 2.30 2.31 2.39 2.55 2.65 2.70 2.86 2.86 2.91 3.08 3.09 3.16 3.23 3.09 2.84 3.00 3.01 3.12 3.45 3.76 3.84
0.66 0.62 0.62 0.62 0.75 0.69 0.78 0.96 1.09 1.25 1.56 1.93 2.26 2.40 2.35 2.31 2.38 2.22 2.16 2.27 2.28 2.26 2.34 2.36 2.35 2.32 2.43 2.63 2.87 2.81 2.96 3.07 3.10 3.07 2.99 2.91 2.96 3.15 3.06 3.17 3.32 3.59 3.85
0.54 0.50 0.49 0.55 0.55 0.57 0.69 0.99 1.31 1.66 1.87 2.19 2.55 2.72 2.52 2.30 2.15 1.97 1.95 2.09 2.25 2.30 2.33 2.34 2.33 2.24 2.34 2.61 2.76 2.85 3.09 3.22 3.09 3.01 2.99 2.85 2.98 3.08 3.06 3.12 3.10 3.21 3.56
0.55 0.53 0.49 0.57 0.59 0.57 0.59 0.73 0.91 1.30 1.65 2.01 2.38 2.45 2.23 2.01 1.97 1.95 1.98 2.10 2.29 2.31 2.30 2.33 2.36 2.43 2.59 2.77 2.88 2.96 3.11 3.07 2.94 2.98 2.89 2.75 2.85 2.76 2.83 2.87 2.89 2.89 3.03
0.68 0.62 0.59 0.58 0.58 0.59 0.58 0.68 0.78 0.88 1.14 1.62 1.96 1.95 1.82 1.77 1.82 1.86 1.92 1.94 2.04 2.11 2.16 2.33 2.50 2.61 2.77 2.89 2.92 2.96 2.92 2.88 2.73 2.62 2.55 2.57 2.70 2.79 2.78 2.67 2.66 2.75 2.91
0.68 0.63 0.63 0.70 0.72 0.77 0.78 0.79 0.82 0.84 1.04 1.56 1.83 1.79 1.71 1.75 1.74 1.74 1.86 1.94 1.99 2.01 2.26 2.41 2.49 2.53 2.55 2.61 2.81 2.78 2.67 2.64 2.48 2.35 2.18 2.20 2.55 2.70 2.68 2.46 2.58 2.67 2.74
0.67 0.65 0.57 0.66 0.77 0.85 0.88 0.89 0.95 1.01 1.14 1.50 1.79 1.76 1.66 1.64 1.59 1.67 1.81 1.94 2.02 2.19 2.38 2.38 2.38 2.33 1.96 2.07 2.25 2.26 2.25 2.29 2.25 2.12 2.05 2.04 2.11 2.14 2.19 2.21 2.25 2.33 2.40
0.65 0.65 0.69 0.77 0.96 0.91 0.94 1.02 0.96 1.02 1.20 1.56 1.81 1.83 1.74 1.70 1.67 1.63 1.81 2.01 2.24 2.43 2.52 2.46 2.40 2.23 2.10 1.99 1.89 1.87 1.92 2.06 2.08 2.10 2.17 1.85 1.65 1.81 1.83 1.99 1.99 1.93 2.05
0.73 0.81 0.79 0.84 0.93 0.93 0.99 1.06 1.08 1.12 1.28 1.57 1.79 1.87 1.85 1.88 1.96 1.98 2.05 2.24 2.50 2.68 2.69 2.65 2.53 2.39 2.25 2.16 1.97 1.96 1.88 1.95 1.97 1.99 2.03 1.97 1.84 1.81 1.92 2.02 1.96 1.80 1.75
0.86 0.91 0.99 1.03 1.12 1.11 1.07 1.15 1.30 1.36 1.42 1.49 1.73 1.93 2.05 2.12 2.10 2.15 2.42 2.62 2.79 2.82 2.77 2.85 2.76 2.61 2.55 2.37 2.02 1.86 1.76 1.90 1.93 1.93 1.88 1.83 1.75 1.85 1.75 1.70 1.70 1.71 1.68
1.01 1.01 1.07 1.13 1.16 1.21 1.28 1.35 1.47 1.63 1.76 1.86 2.02 2.31 2.52 2.65 2.68 2.76 2.82 2.89 2.99 2.94 2.95 2.87 2.82 2.70 2.64 2.56 2.04 1.78 1.67 1.84 1.87 1.92 1.87 1.75 1.59 1.61 1.52 1.45 1.58 1.58 1.58
0.95 1.04 1.07 1.17 1.27 1.28 1.43 1.71 1.85 1.95 2.13 2.30 2.38 2.64 2.99 3.17 3.13 3.15 3.04 2.96 2.96 2.97 2.97 2.85 2.75 2.67 2.58 2.49 2.05 1.87 1.82 1.93 2.01 1.94 1.83 1.76 1.65 1.47 1.44 1.38 1.40 1.48 1.52
0.89 1.01 1.10 1.18 1.38 1.64 1.84 2.12 2.30 2.37 2.45 2.61 2.91 3.14 3.31 3.14 3.05 3.21 3.10 3.11 3.17 3.14 3.04 2.94 2.83 2.83 2.73 2.50 2.17 1.96 1.94 2.00 2.05 2.07 2.02 1.93 1.73 1.50 1.44 1.34 1.30 1.30 1.23
0.89 0.99 1.10 1.28 1.48 1.79 2.19 2.44 2.53 2.74 2.75 2.81 3.01 3.08 3.14 3.25 3.38 3.44 3.31 3.24 3.23 3.16 2.98 2.87 2.68 2.59 2.69 2.70 2.28 2.00 2.01 2.04 1.96 2.08 2.17 1.93 1.68 1.52 1.35 1.34 1.35 1.24 1.11
0.99 1.04 1.15 1.36 1.66 1.97 2.31 2.47 2.54 2.59 2.62 2.66 2.70 2.81 2.99 3.12 3.23 3.45 3.45 3.32 3.14 3.04 2.95 2.90 2.76 2.66 2.68 2.63 2.27 1.95 1.92 1.97 1.89 1.92 2.02 1.89 1.72 1.57 1.43 1.38 1.35 1.24 1.26
1.07 1.17 1.28 1.39 1.55 1.80 2.08 2.21 2.39 2.51 2.68 2.73 2.66 2.58 2.62 2.75 2.90 3.02 3.11 3.05 3.00 2.86 2.73 2.57 2.51 2.46 2.46 2.48 2.24 1.98 1.93 2.04 2.11 2.07 2.04 1.98 1.84 1.69 1.55 1.50 1.53 1.56 1.55
1.04 1.17 1.31 1.47 1.63 1.80 1.99 2.10 2.30 2.47 2.63 2.65 2.54 2.51 2.47 2.55 2.61 2.62 2.59 2.46 2.36 2.22 2.05 1.98 1.91 1.87 1.92 2.09 1.94 1.80 1.86 2.05 2.18 2.06 1.96 2.03 1.96 1.82 1.71 1.64 1.64 1.64 1.60